N4ESA Weather Reports


time (UTC)temp
C
wind
direction
speed
KPH
gust
KPH
rain 1hr
cm
rain 24hr
cm
rain mn
cm
humidity
%
barometer
mb
20260906113042 21 164 0.0 0.0 0.00 2.06 0.03 100
20260906111550 21 165 0.0 0.0 0.00 2.06 0.03 100
20260906110038 21 165 0.0 0.0 0.00 2.06 0.03 100
20260906104538 20 165 0.0 0.0 0.00 2.06 0.03 100
20260906103036 20 165 0.0 0.0 0.00 2.06 0.03 100
20260906101536 20 164 0.0 0.0 0.03 2.06 0.03 100
20260906100042 20 164 0.0 0.0 0.03 2.06 0.03 100
20260906094536 20 164 0.0 0.0 0.03 2.06 0.03 100
20260906093038 20 181 0.0 0.0 0.03 2.06 0.03 100
20260906091534 20 181 0.0 0.0 0.00 2.03 0.00 100
20260906090033 20 171 0.0 0.0 0.00 2.03 0.00 100 790.0
20260906084532 20 171 0.0 0.0 0.00 2.03 0.00 100 790.0
20260906083032 20 171 0.0 0.0 0.00 2.03 0.00 100 790.0
20260906081531 20 171 0.0 0.0 0.00 2.03 0.00 100 790.0
20260906080031 20 171 0.0 0.0 0.00 2.03 0.00 100 790.0
20260906074530 20 169 0.0 0.0 0.00 2.03 0.00 100 790.0
20260906073031 20 169 0.0 0.0 0.00 2.03 0.00 100 790.0
20260906071528 21 169 0.0 0.0 0.00 2.03 0.00 100 790.0
20260906070027 21 169 0.0 0.0 0.00 2.03 0.00 100 790.0
20260906064525 20 171 0.0 0.0 0.00 2.03 0.00 100 790.0
20260906063024 20 173 0.0 0.0 0.00 2.03 0.00 100 790.0
20260906061523 20 173 0.0 0.0 0.00 2.03 0.00 100 790.0
20260906060026 20 173 0.0 0.0 0.00 2.03 0.00 100 790.0
20260906054536 21 173 0.0 0.0 0.00 2.03 0.00 100 790.0
20260906053020 21 173 0.0 0.0 0.00 2.03 0.00 100 790.0
20260906051519 21 173 0.0 0.0 0.00 2.03 0.00 100 790.0
20260906050019 21 173 0.0 0.0 0.00 2.03 0.00 100 790.0
20260906044518 21 173 0.0 0.0 0.00 2.03 0.00 100 790.0
20260906043019 21 173 0.0 3.2 0.00 2.03 0.00 100 790.0
20260906041516 21 178 3.2 4.8 0.00 2.03 0.00 100 790.0
20260906040024 21 219 0.0 0.0 0.00 2.03 2.03 100 790.0
20260906034515 21 219 0.0 3.2 0.00 2.03 2.03 100 790.0
20260906033032 21 219 0.0 4.8 0.00 2.03 2.03 100 790.0
20260906031512 21 145 0.0 0.0 0.00 2.03 2.03 100 790.0
20260906030012 21 144 0.0 0.0 0.00 2.03 2.03 100 790.0
20260906024513 21 144 0.0 0.0 0.00 2.03 2.03 100 790.0
20260906023013 21 144 0.0 0.0 0.00 2.03 2.03 100 790.0
20260906021511 21 144 0.0 0.0 0.00 2.03 2.03 100 790.0
20260906020010 21 144 0.0 0.0 0.00 2.03 2.03 100 790.0
20260906014510 21 144 0.0 3.2 0.00 2.03 2.03 100 790.0
20260906013009 21 146 0.0 1.6 0.00 2.03 2.03 100 790.0
20260906011515 21 146 0.0 0.0 0.00 2.03 2.03 100 790.0
20260906010011 21 146 0.0 3.2 0.00 2.03 2.03 100 790.0
20260906004508 21 144 0.0 4.8 0.00 2.03 2.03 100 790.0
20260906003007 21 140 0.0 1.6 0.00 2.03 2.03 100 790.0
20260906001509 21 140 0.0 8.0 0.00 2.03 2.03 100 790.0
20260906000008 21 319 0.0 0.0 0.00 2.03 2.03 100 790.0
20260905234506 22 319 0.0 0.0 0.00 2.03 2.03 100 790.0
20260905233006 22 313 0.0 0.0 0.00 2.03 2.03 99 790.0
20260905231505 22 324 0.0 0.0 0.00 2.03 2.03 100 790.0
20260905230004 22 96 0.0 0.0 0.03 2.03 2.03 100 790.0
20260905224504 22 92 0.0 0.0 0.03 2.03 2.03 99 790.0
20260905223003 22 27 0.0 0.0 0.03 2.03 2.03 99 790.0
20260905221503 21 23 0.0 4.8 0.05 2.03 2.03 99 790.0
20260905220002 21 24 1.6 8.0 0.10 2.01 2.01 99 790.0
20260905214502 21 290 4.8 16.1 0.99 2.01 2.01 99 790.0
20260905213000 21 175 1.6 4.8 1.35 2.01 2.01 97 790.0
20260905211559 21 154 3.2 14.5 1.98 1.98 1.98 97 790.0
20260905210105 21 42 6.4 22.5 1.91 1.91 1.91 95 790.0
20260905204554 23 317 19.3 70.8 1.07 1.07 1.07 90 790.0
20260905203052 28 189 6.4 29.0 0.66 0.66 0.66 82 790.0
20260905201551 33 276 3.2 9.7 0.00 0.00 0.00 70 790.0
20260905200050 35 250 3.2 11.3 0.00 0.00 0.00 67 790.0
20260905194551 36 323 4.8 12.9 0.00 0.00 0.00 66 790.0
20260905193049 35 217 3.2 11.3 0.00 0.00 0.00 64 790.0
20260905191548 34 236 1.6 8.0 0.00 0.00 0.00 70 790.0
20260905190048 34 237 0.0 6.4 0.00 0.00 0.00 68 790.0
20260905184556 36 238 3.2 12.9 0.00 0.00 0.00 66 790.0
20260905183047 36 142 1.6 11.3 0.00 0.00 0.00 64 790.0
20260905181545 36 284 0.0 6.4 0.00 0.00 0.00 67 790.0
20260905180050 36 22 0.0 8.0 0.00 0.00 0.00 63 790.0
20260905174542 36 281 3.2 8.0 0.00 0.00 0.00 63 790.0
20260905173100 35 317 3.2 14.5 0.00 0.00 0.00 66 790.0
20260905171537 35 275 3.2 12.9 0.00 0.00 0.00 67 790.0
20260905170038 35 244 3.2 11.3 0.00 0.00 0.00 68 790.0
20260905164534 35 271 3.2 12.9 0.00 0.00 0.00 67 790.0
20260905163031 34 245 0.0 12.9 0.00 0.00 0.00 72
20260905161530 34 248 4.8 11.3 0.00 0.00 0.00 71
20260905160027 33 263 4.8 17.7 0.00 0.00 0.00 71
20260905154524 33 238 1.6 11.3 0.00 0.00 0.00 73
20260905153021 32 282 3.2 12.9 0.00 0.00 0.00 75
20260905151521 32 299 3.2 14.5 0.00 0.00 0.00 77
20260905150017 32 300 1.6 9.7 0.00 0.00 0.00 77
20260905144522 32 231 3.2 8.0 0.00 0.00 0.00 80
20260905143011 31 265 4.8 12.9 0.00 0.00 0.00 79
20260905141508 30 259 1.6 12.9 0.00 0.00 0.00 82
20260905140005 30 277 4.8 12.9 0.00 0.00 0.00 84
20260905134601 29 248 1.6 12.9 0.00 0.00 0.00 88
20260905133103 28 300 8.0 17.7 0.00 0.00 0.00 86 698.9
20260905131559 28 249 3.2 17.7 0.00 0.00 0.00 86 698.9
20260905130054 28 257 8.0 17.7 0.00 0.00 0.00 87 698.9
20260905124551 28 284 6.4 16.1 0.00 0.00 0.00 89 698.9
20260905123059 27 272 8.0 19.3 0.00 0.00 0.00 90 698.9
20260905121552 26 258 4.8 14.5 0.00 0.00 0.00 92 698.9
20260905120044 26 257 4.8 12.9 0.00 0.00 0.00 94 698.9
20260905114544 25 285 0.0 11.3 0.00 0.00 0.00 96 698.9